This is the latest recevied weather packets stored in our database for station/object T10BNorth. If no packets are shown the sender has not sent any weather packets the latest 10 day(s).
| Time | Temp. | Humidity | Pressure | Rain* | Wind** | Luminosity | Snow |
|---|---|---|---|---|---|---|---|
| 1777643300 | 5° C | 75% | 1007.9 hPa | 0 mm | - | 694 W/m² | - |
| 1777643280 | 5° C | 72% | 1008 hPa | 0 mm | - | 292 W/m² | - |
| 1777643168 | 5° C | 75% | 1007.9 hPa | 0 mm | - | 269 W/m² | - |
| 1777643109 | 5° C | 75% | 1007.9 hPa | 0 mm | - | 246 W/m² | - |
| 1777643049 | 5° C | 75% | 1007.9 hPa | 0 mm | - | 246 W/m² | - |
| 1777642989 | 5° C | 75% | 1007.9 hPa | 0 mm | - | 236 W/m² | - |
| 1777642928 | 5° C | 76% | 1008 hPa | 0 mm | - | 234 W/m² | - |
| 1777642868 | 5° C | 76% | 1007.8 hPa | 0 mm | - | 731 W/m² | - |
| 1777642809 | 5° C | 76% | 1007.6 hPa | 0 mm | - | 731 W/m² | - |
| 1777642750 | 5° C | 76% | 1007.9 hPa | 0 mm | - | 731 W/m² | - |
| 1777642690 | 4.44° C | 76% | 1007.9 hPa | 0 mm | - | 731 W/m² | - |
| 1777642629 | 4.44° C | 75% | 1008 hPa | 0 mm | - | 731 W/m² | - |
| 1777642568 | 4.44° C | 77% | 1007.9 hPa | 0 mm | - | 712 W/m² | - |
| 1777642510 | 4.44° C | 78% | 1007.9 hPa | 0 mm | - | 686 W/m² | - |
| 1777642450 | 4.44° C | 77% | 1007.8 hPa | 0 mm | - | 100 W/m² | - |
| 1777642397 | 4.44° C | 79% | 1007.9 hPa | 0 mm | - | 100 W/m² | - |
| 1777642376 | 4.44° C | 79% | 1007.9 hPa | 0 mm | - | 148 W/m² | - |
| 1777642264 | 4.44° C | 78% | 1007.9 hPa | 0 mm | - | 190 W/m² | - |
| 1777642234 | 4.44° C | 78% | 1007.9 hPa | 0 mm | - | 158 W/m² | - |
| 1777642146 | 4.44° C | 78% | 1007.9 hPa | 0 mm | - | 146 W/m² | - |
| 1777642090 | 4.44° C | 78% | 1007.8 hPa | 0 mm | - | 148 W/m² | - |
| 1777642026 | 4.44° C | 78% | 1007.9 hPa | 0 mm | - | 163 W/m² | - |
| 1777641960 | 4.44° C | 79% | 1007.8 hPa | 0 mm | - | 251 W/m² | - |
| 1777641902 | 4.44° C | 79% | 1007.8 hPa | 0 mm | - | 251 W/m² | - |
| 1777641840 | 4.44° C | 80% | 1007.8 hPa | 0 mm | - | 192 W/m² | - |
* Rain latest hour (hover to see other rain measurements)
** Current wind speed in m/s (hover to see current wind gust speed)